Date String (YYYY-MM-DD hh:mm:ss) UTC,Instrument flags,absolute air pressure of the measurement (hPa),sample flow rate (lpm),inlet stack bypass flow (lpm),air temperature of the measurement (°C),ambient temperature measured by the external sensor (°C),aerosol sample conditioner tube jacket temperature (°C),OPC LED temperature (°C),internal box temperature (°C),relative humidity of the measurement (%),span deviation,mass concentration of particles derived from Lorenz-Mie calculation of OPC scattering (μg/m³),mass concentration of particles derived from Lorenz-Mie calculation of OPC scattering (μg/m³),mass concentration of particles derived from Lorenz-Mie calculation of OPC scattering (μg/m³)
DateTimeUTC,F1_M11,P_M11,Q1_M11,Q2_M11,T1_M11,T2_M11,T3_M11,T4_M11,T5_M11,U1_M11,ZSPAN_M11,X0_M11,X2_M11,X1_M11
2023-09-07 12:00:00,SystemResetWarning,0831.7,4.99,000.00,028.8,027.6,000.0,037.0,030.4,18.7,0002.2,0015.01,0005.64,0004.65
2023-09-07 12:01:00,SystemResetWarning,0831.7,4.99,000.00,028.8,027.6,000.0,037.1,030.4,17.9,0002.0,0014.68,0005.65,0004.63
2023-09-07 12:02:00,SystemResetWarning,0831.7,5.00,000.00,028.9,027.6,000.0,037.1,030.4,18.8,0002.0,0014.63,0005.56,0004.61
2023-09-07 12:03:00,SystemResetWarning,0831.7,5.02,000.00,028.9,027.6,000.0,037.1,030.4,18.9,0001.9,0015.05,0005.52,0004.59
2023-09-07 12:04:00,SystemResetWarning,0831.6,5.00,000.00,028.9,027.0,000.0,037.1,030.3,18.8,0002.3,0015.89,0005.46,0004.58
2023-09-07 12:05:00,SystemResetWarning,0831.6,4.99,000.00,028.8,025.0,000.0,037.0,029.9,19.0,0002.4,0015.51,0005.41,0004.57
2023-09-07 12:06:00,SystemResetWarning,0831.6,5.01,000.00,028.6,024.4,000.0,036.9,029.7,19.2,0002.3,0015.49,0005.42,0004.55
2023-09-07 12:07:00,SystemResetWarning,0831.5,5.01,000.00,028.5,024.6,000.0,036.9,029.6,18.9,0002.4,0016.05,0005.44,0004.53
2023-09-07 12:08:00,SystemResetWarning,0831.5,4.99,000.00,028.4,024.9,000.0,036.9,029.5,18.4,0002.7,0015.46,0005.39,0004.50
2023-09-07 12:09:00,SystemResetWarning,0831.5,5.00,000.00,028.4,025.2,000.0,036.9,029.6,17.8,0002.7,0015.26,0005.45,0004.48
2023-09-07 12:10:00,SystemResetWarning,0831.5,5.00,000.00,028.3,025.6,000.0,036.9,029.6,17.6,0002.6,0015.02,0005.41,0004.45
2023-09-07 12:11:00,SystemResetWarning,0831.6,5.01,000.00,028.3,025.9,000.0,036.8,029.7,17.6,0002.5,0015.50,0005.39,0004.46
2023-09-07 12:12:00,SystemResetWarning,0831.6,5.00,000.00,028.3,026.2,000.0,036.8,029.8,17.6,0002.9,0015.44,0005.34,0004.46
2023-09-07 12:13:00,SystemResetWarning,0831.7,5.00,000.00,028.3,026.4,000.0,036.8,029.8,17.6,0003.2,0015.67,0005.38,0004.45
2023-09-07 12:14:00,SystemResetWarning,0831.7,5.00,000.00,028.3,026.6,000.0,036.8,029.8,17.6,0003.0,0015.32,0005.39,0004.45
2023-09-07 12:15:00,SystemResetWarning,0831.7,4.99,000.00,028.3,026.7,000.0,036.8,029.8,18.2,0002.9,0014.32,0005.37,0004.44
2023-09-07 12:16:00,SystemResetWarning,0831.7,5.00,000.00,028.4,026.8,000.0,036.8,030.0,18.4,0002.9,0013.33,0005.35,0004.42
2023-09-07 12:17:00,SystemResetWarning,0831.7,5.00,000.00,028.4,026.9,000.0,036.8,030.0,17.9,0002.9,0013.21,0005.40,0004.42
2023-09-07 12:18:00,SystemResetWarning,0831.6,5.00,000.00,028.4,027.0,000.0,036.8,030.0,18.4,0002.9,0012.66,0005.41,0004.42
2023-09-07 12:19:00,SystemResetWarning,0831.7,5.00,000.00,028.4,027.1,000.0,036.8,030.0,18.6,0002.6,0012.71,0005.42,0004.43
2023-09-07 12:20:00,SystemResetWarning,0831.7,5.00,000.00,028.4,027.1,000.0,036.8,030.0,18.6,0002.6,0013.11,0005.42,0004.45
2023-09-07 12:21:00,SystemResetWarning,0831.7,5.00,000.00,028.5,027.2,000.0,036.8,030.1,18.6,0002.6,0013.40,0005.47,0004.47
2023-09-07 12:22:00,SystemResetWarning,0831.7,4.99,000.00,028.5,027.2,000.0,036.8,030.1,18.5,0002.4,0013.65,0005.53,0004.49
2023-09-07 12:23:00,SystemResetWarning,0831.7,4.99,000.00,028.5,027.3,000.0,036.8,030.2,18.3,0002.2,0013.36,0005.56,0004.51
2023-09-07 12:24:00,SystemResetWarning,0831.7,5.01,000.00,028.5,027.3,000.0,036.8,030.1,18.5,0001.6,0013.28,0005.61,0004.54
2023-09-07 12:25:00,SystemResetWarning,0831.8,5.00,000.00,028.5,027.3,000.0,036.8,030.2,18.2,0001.5,0013.61,0005.60,0004.56
2023-09-07 12:26:00,SystemResetWarning,0832.1,5.00,000.00,028.6,027.4,000.0,036.8,030.2,17.5,0001.7,0014.88,0005.67,0004.59
2023-09-07 12:27:00,SystemResetWarning,0831.9,5.01,000.00,028.6,027.4,000.0,036.9,030.3,17.7,0001.7,0015.22,0005.73,0004.62
2023-09-07 12:28:00,SystemResetWarning,0831.8,5.01,000.00,028.6,027.4,000.0,036.9,030.3,18.1,0001.6,0014.70,0005.73,0004.63
2023-09-07 12:29:00,SystemResetWarning,0831.8,5.00,000.00,028.6,027.4,000.0,036.9,030.3,17.6,0001.2,0014.67,0005.74,0004.63
2023-09-07 12:30:00,SystemResetWarning,0831.8,5.00,000.00,028.7,027.5,000.0,036.9,030.3,17.6,0001.5,0014.87,0005.77,0004.63
2023-09-07 12:31:00,SystemResetWarning,0831.8,4.99,000.00,028.7,027.5,000.0,036.9,030.3,17.8,0001.5,0014.37,0005.76,0004.63
2023-09-07 12:32:00,SystemResetWarning,0831.8,5.00,000.00,028.7,027.5,000.0,036.9,030.3,17.7,0001.8,0013.84,0005.70,0004.64
2023-09-07 12:33:00,SystemResetWarning,0831.9,5.00,000.00,028.7,027.5,000.0,037.0,030.3,17.7,0001.9,0013.20,0005.67,0004.64
2023-09-07 12:34:00,SystemResetWarning,0831.9,5.01,000.00,028.7,027.5,000.0,037.0,030.3,17.7,0002.1,0013.30,0005.63,0004.62
2023-09-07 12:35:00,SystemResetWarning,0831.9,5.01,000.00,028.7,027.5,000.0,037.0,030.4,17.7,0002.5,0013.26,0005.61,0004.60
2023-09-07 12:36:00,SystemResetWarning,0832.0,5.00,000.00,028.8,027.5,000.0,037.0,030.4,17.4,0002.8,0013.52,0005.59,0004.57
2023-09-07 12:37:00,SystemResetWarning,0832.0,4.99,000.00,028.8,027.5,000.0,037.0,030.4,17.1,0002.6,0012.28,0005.53,0004.52
2023-09-07 12:38:00,SystemResetWarning,0832.0,4.99,000.00,028.8,027.5,000.0,037.0,030.4,17.1,0002.6,0011.91,0005.45,0004.49
2023-09-07 12:39:00,SystemResetWarning,0832.1,5.00,000.00,028.8,027.5,000.0,037.0,030.4,16.8,0002.6,0011.63,0005.45,0004.48
2023-09-07 12:40:00,SystemResetWarning,0832.0,5.00,000.00,028.8,027.5,000.0,037.1,030.4,16.6,0002.9,0012.15,0005.41,0004.48
2023-09-07 12:41:00,SystemResetWarning,0832.1,5.01,000.00,028.8,027.6,000.0,037.1,030.4,16.7,0003.1,0014.26,0005.39,0004.48
2023-09-07 12:42:00,SystemResetWarning,0832.1,5.00,000.00,028.8,027.6,000.0,037.1,030.4,16.8,0003.0,0015.09,0005.39,0004.50
2023-09-07 12:43:00,SystemResetWarning,0832.1,5.00,000.00,028.9,027.6,000.0,037.1,030.4,16.7,0003.0,0015.09,0005.39,0004.49
2023-09-07 12:44:00,SystemResetWarning,0832.1,5.00,000.00,028.9,027.5,000.0,037.1,030.5,16.6,0002.9,0014.92,0005.31,0004.45
2023-09-07 12:45:00,SystemResetWarning,0832.1,4.99,000.00,028.8,026.2,000.0,037.1,030.1,16.6,0002.7,0015.47,0005.28,0004.41
2023-09-07 12:46:00,SystemResetWarning,0832.0,5.01,000.00,028.7,024.8,000.0,037.0,029.7,16.8,0002.6,0015.82,0005.25,0004.38
2023-09-07 12:47:00,SystemResetWarning,0832.0,5.01,000.00,028.5,024.6,000.0,036.9,029.6,17.0,0002.5,0016.06,0005.21,0004.32
2023-09-07 12:48:00,SystemResetWarning,0832.0,5.00,000.00,028.4,024.8,000.0,036.9,029.4,17.1,0002.7,0015.67,0005.18,0004.32
2023-09-07 12:49:00,SystemResetWarning,0832.1,5.00,000.00,028.4,025.1,000.0,036.9,029.5,17.2,0002.6,0015.56,0005.13,0004.30
2023-09-07 12:50:00,SystemResetWarning,0832.1,5.00,000.00,028.3,025.5,000.0,036.9,029.6,17.2,0002.4,0015.43,0005.06,0004.25
2023-09-07 12:51:00,SystemResetWarning,0832.1,5.00,000.00,028.3,025.8,000.0,036.8,029.7,17.3,0002.2,0014.85,0005.03,0004.21
2023-09-07 12:52:00,SystemResetWarning,0832.1,4.99,000.00,028.3,026.1,000.0,036.8,029.7,17.3,0002.1,0012.37,0004.98,0004.18
2023-09-07 12:53:00,SystemResetWarning,0832.1,5.00,000.00,028.3,026.3,000.0,036.8,029.8,17.3,0002.2,0010.87,0004.93,0004.13
2023-09-07 12:54:00,SystemResetWarning,0832.1,5.00,000.00,028.3,026.5,000.0,036.8,029.9,17.5,0002.2,0011.03,0004.90,0004.10
2023-09-07 12:55:00,SystemResetWarning,0832.2,5.00,000.00,028.3,026.7,000.0,036.8,029.9,17.6,0002.1,0011.47,0004.95,0004.10
2023-09-07 12:56:00,SystemResetWarning,0832.2,5.00,000.00,028.4,026.8,000.0,036.8,029.9,17.7,0002.0,0011.02,0004.96,0004.12
2023-09-07 12:57:00,SystemResetWarning,0832.2,5.00,000.00,028.4,026.9,000.0,036.8,029.9,17.5,0001.9,0010.84,0004.99,0004.15
2023-09-07 12:58:00,SystemResetWarning,0832.2,4.99,000.00,028.4,027.0,000.0,036.8,029.9,17.4,0001.7,0010.45,0004.98,0004.18
2023-09-07 12:59:00,SystemResetWarning,0832.2,5.00,000.00,028.4,027.0,000.0,036.8,029.9,17.2,0001.7,0010.83,0005.00,0004.20
